www.pogodaiklimat.ru

Погода и климат >> Архив погоды >> Самоа >> Manono


ПОГОДА в Manono

  • Прогноз погоды в Manono
  • Монитор погоды в Manono
  • Климат города

АРХИВ ПОГОДЫ в Manono

Время (UTC), дата Ветер
(напр.,м/с)
 
Видим.   Явления Облачность Т
(С)
Тd
(С)
f
(%)
Тe
(С)
Тes
(С)
Комфортность P
(гПа)
Po
(гПа)
Тmin
(С)
Tmax
(С)
R
(мм)
R24
(мм)
S
(см)
21 18.06 штиль 0 н/о н/о +30.1 +24.7 73 +43 +43 опасность
перегрева
1011.4 1006.2
00 19.06 штиль 0 н/о н/о +29.9 +23.5 69 +41 +41 опасность
перегрева
1009.6 1004.4 +23.3
03 19.06 штиль 0 н/о н/о +26.0 +25.5 97 +38 +38 очень
душно
1008.5 1003.3
06 19.06 ЮВ 2 н/о н/о +24.7 +23.7 94 +34 +34 очень
душно
1009.5 1004.2 3
09 19.06 штиль 0 н/о н/о +23.6 +23.8 100 +32 +32 очень
душно
1010.8 1005.5
12 19.06 штиль 0 н/о н/о +23.3 +23.5 100 +33 +33 очень
душно
1010.2 1004.9 +30.3
15 19.06 Ю 1 н/о н/о +23.0 +22.7 98 +32 +32 очень
душно
1009.4 1004.1
18 19.06 штиль 0 н/о н/о +22.9 +22.6 98 +31 +31 очень
душно
1010.5 1005.2
21 19.06 В 2 н/о н/о +29.8 +25.7 79 +44 +44 опасность
перегрева
1011.5 1006.3
00 20.06 СВ 2 н/о н/о +30.0 +25.0 75 +43 +43 опасность
перегрева
1009.9 1004.7 +23.0
03 20.06 СВ 2 н/о н/о +30.0 +25.0 75 +43 +43 опасность
перегрева
1009.9 1004.7 +23.0
06 20.06 В 1 н/о н/о +25.8 +23.6 88 +35 +35 очень
душно
1009.8 1004.6
12 20.06 В 1 н/о н/о +25.5 +21.5 79 +33 +33 очень
душно
1010.5 1005.3 +31.3
15 20.06 В 2 н/о н/о +24.9 +22.6 87 +33 +33 очень
душно
1008.7 1003.5
18 20.06 В 1 н/о н/о +25.0 +22.7 87 +33 +33 очень
душно
1009.1 1003.9
21 20.06 СВ 1 н/о н/о +28.1 +24.9 83 +40 +40 очень
душно
1010.2 1005.0
00 21.06 штиль 0 н/о н/о +26.1 +24.7 92 +37 +37 очень
душно
1008.7 1003.5 +22.8 0.5
03 21.06 ЮВ 2 н/о н/о +24.3 +24.1 99 +33 +33 очень
душно
1007.8 1002.5
06 21.06 штиль 0 н/о н/о +23.3 +23.5 100 +33 +33 очень
душно
1008.1 1002.8
09 21.06 В 1 н/о н/о +23.6 +23.8 100 +32 +32 очень
душно
1008.9 1003.6
12 21.06 штиль 0 н/о н/о +23.8 +23.5 98 +32 +32 очень
душно
1007.9 1002.6 +31.0
15 21.06 В 1 н/о н/о +24.2 +23.5 96 +33 +33 очень
душно
1007.1 1001.9
18 21.06 СВ 1 н/о н/о +24.0 +24.2 100 +33 +33 очень
душно
1008.2 1002.9 4
21 21.06 СВ 2 н/о н/о +28.6 +26.2 87 +43 +43 опасность
перегрева
1009.4 1004.2
00 22.06 СВ 1 н/о н/о +30.0 +26.5 82 +46 +46 опасность
перегрева
1007.7 1002.5 +23.2
03 22.06 СВ 2 н/о н/о +27.2 +25.2 89 +39 +39 очень
душно
1006.8 1001.6
06 22.06 СВ 1 н/о н/о +25.0 +24.8 99 +35 +35 очень
душно
1008.0 1002.8 2
12 22.06 штиль 0 н/о н/о +23.6 +23.6 100 +32 +32 очень
душно
1009.3 1004.0 +30.3 5
15 22.06 С 1 н/о н/о +23.8 +24.0 100 +32 +32 очень
душно
1007.6 1002.3
18 22.06 СВ 1 н/о н/о +24.2 +24.4 100 +33 +33 очень
душно
1008.8 1003.5
21 22.06 штиль 0 н/о н/о +30.4 +25.4 75 +45 +45 опасность
перегрева
1010.7 1005.5
00 23.06 СВ 2 н/о н/о +29.8 +26.3 82 +46 +46 опасность
перегрева
1008.6 1003.4 +23.6
03 23.06 СВ 2 н/о н/о +27.3 +24.7 86 +39 +39 очень
душно
1007.0 1001.8
06 23.06 СВ 1 н/о н/о +25.4 +24.5 95 +36 +36 очень
душно
1008.4 1003.2
09 23.06 штиль 0 н/о н/о +24.6 +24.6 100 +34 +34 очень
душно
1010.0 1004.7
12 23.06 В 1 н/о н/о +24.1 +23.8 98 +33 +33 очень
душно
1009.3 1004.0 +31.4
15 23.06 СВ 1 н/о н/о +24.4 +24.1 98 +34 +34 очень
душно
1008.1 1002.8 0.5
18 23.06 штиль 0 н/о н/о +24.1 +24.1 100 +33 +33 очень
душно
1009.4 1004.1
21 23.06 СВ 1 н/о н/о +30.0 +25.5 77 +44 +44 опасность
перегрева
1010.9 1005.7
00 24.06 СВ 1 н/о н/о +30.8 +25.6 74 +45 +45 опасность
перегрева
1009.2 1004.1 +23.5
03 24.06 СВ 1 н/о н/о +27.7 +24.3 82 +39 +39 очень
душно
1007.7 1002.5
06 24.06 штиль 0 н/о н/о +25.2 +24.3 95 +35 +35 очень
душно
1009.3 1004.1
12 24.06 штиль 0 н/о н/о +24.0 +24.2 100 +33 +33 очень
душно
1010.3 1005.0 +31.2
18 24.06 штиль 0 н/о н/о +23.6 +23.8 100 +32 +32 очень
душно
1009.8 1004.5
21 24.06 В 1 н/о н/о +30.0 +25.2 76 +44 +44 опасность
перегрева
1010.9 1005.7
00 25.06 СВ 2 н/о н/о +30.8 +26.7 79 +48 +48 опасность
перегрева
1009.6 1004.5 +24.0
03 25.06 СВ 1 н/о н/о +27.4 +24.8 86 +39 +39 очень
душно
1008.3 1003.1
06 25.06 В 1 н/о н/о +25.7 +23.9 90 +35 +35 очень
душно
1009.5 1004.3
09 25.06 СВ 1 н/о н/о +24.7 +23.3 92 +33 +33 очень
душно
1010.6 1005.3
12 25.06 штиль 0 н/о н/о +23.7 +23.4 98 +32 +32 очень
душно
1010.1 1004.8 +31.3
15 25.06 ЮВ 1 н/о н/о +24.0 +23.0 94 +32 +32 очень
душно
1008.6 1003.3
18 25.06 штиль 0 н/о н/о +23.3 +22.3 94 +32 +32 очень
душно
1009.7 1004.4

 

Местоположение метеостанции Manono (Самоа): широта -13.85 долгота -172.11 высота над уровнем моря 46 м.

В архиве по умолчанию представлена погода в Manono за последнюю неделю. Архивные данные за месяц целиком и за предыдущие месяцы, начиная с января 2011 года, Вы можете получить, выбрав интересующий диапазон дат из раскрывающегося списка и нажав кнопку "Ввод!".


*Определитесь, кто Вы:
робот инопланетянин человек

Внимание! Время в таблицах - всемирное. Для получения местного времени необходимо прибавить поправку, которая в Manono равна 13 ч.

Смотрите также архив погоды в соседних городах и на ближайших метеорологических станциях:

Погода в Faleolo Int Airport (Самоа) (10 км)
Погода в Faleolo Int Airport (Американское Самоа) (13 км)
Погода в Faleolo Int East (Самоа) (13 км)
Погода в Maota Int Airport (Самоа) (20 км)
Погода в Togitogiga (Самоа) (42 км)
Погода в Apia (Американское Самоа) (45 км)
Погода в Le Piu Tai (Самоа) (53 км)
Погода в Le Mafa (Самоа) (56 км)
Погода в Lufi-Lufi (Самоа) (59 км)
Погода в Mount Talu (Самоа) (73 км)

Пояснения к столбцам:

Ветер - указаны скорость ветра в м/с - средняя за 10 мин, порывы в срок и между сроками (в фигурных скобках) и направление, откуда дует ветер: С - северный, СВ - северо-восточный, В - восточный, ЮВ - юго-восточный, Ю - южный, ЮЗ - юго-западный, З - западный, СЗ - северо-западный.
Видимость - горизонтальная дальность видимости в метрах или километрах. При видимости от 1 до 10 км при отсутствии осадков обычно наблюдается дымка, при ухудшении видимости до 1 км и менее - туман. В сухую погоду видимость может ухудшаться дымом, пылью или мглою.
Явления - указаны атмосферные явления, наблюдавшиеся в срок или в последний час перед сроком; фигурными скобками обозначены явления, наблюдавшиеся между сроками (за 1-3 часа до срока); квадратными скобками обозначены град или гололедные отложения с указанием их диаметра в мм.
Облачность - указаны через наклонную черту общая и нижняя облачность в баллах и высота нижней границы облаков в метрах; квадратными скобками обозначены формы облаков: Ci - перистые, Cs - перисто-слоистые, Cc - перисто-кучевые, Ac - высококучевые, As - высокослоистые, Sc - слоисто-кучевые, Ns - слоисто-дождевые, Cu - кучевые, Cb - кучево-дождевые. Подробнее классификацию облаков см. в Атласе облаков (PDF).
T - Температура воздуха - температура, измеренная на высоте 2 м над землей.
Td - Температура точки росы - температура, при понижении до которой содержащийся в воздухе водяной пар достигнет насыщения.
f - Относительная влажность воздуха - влажноcть воздуха, измеренная на высоте 2 м над землей.
Te - Эффективная температура - температура, которую ощущает одетый по сезону человек в тени. Характеристика душности погоды. При расчете учитывается влияние влажности воздуха и скорости ветра на теплоощущения человека.
Tes - Эффективная температура на солнце - температура, которую ощущает человек, с поправкой на солнечный нагрев. Характеристика знойности погоды. Зависит от высоты солнца над горизонтом, облачности и скорости ветра. Ночью, в пасмурную погоду, а также при ветре 12 м/с и более поправка равна нулю.
P - Атмосферное давление - приведенное к уровню моря атмосферное давление.
Po - Атмосферное давление - измеренное на уровне метеостанции атмосферное давление.
Tmin - Минимальная температура - минимум температуры воздуха на высоте 2 м над землей.
Tmax - Максимальная температура - максимум температуры воздуха на высоте 2 м над землей.
R - Количество осадков - Количество выпавших осадков за период времени, мм. При наведении курсора мыши на число - период времени, за который выпало указанное количество осадков.
R24 - Количество осадков - Количество выпавших осадков за 24 часа, мм.
S - Снежный покров - Высота снежного покрова, см. При наведении курсора мыши на число - состояние снежного покрова и степень покрытия местности в баллах.